Regional Weather Roundup
Issued by NWS

Home | Current Version | Previous Version | Text Only | Print | Product List | Glossary On
Versions: 1 2 3 4 5 6 7 8 9 10 11 12 13 14 15 16 17 18 19 20 21 22 23 24 25 26 27 28 29 30 31 32 33 34 35 36 37 38 39 40 41 42 43 44 45 46 47 48 49 50
000
ASUS43 KMPX 141101
RWRMN
WEATHER ROUNDUP FOR MINNESOTA
NATIONAL WEATHER SERVICE TWIN CITIES/CHANHASSEN MN
500 AM CST THU DEC 14 2017


NOTE: "FAIR" INDICATES FEW OR NO CLOUDS BELOW 12,000 FEET WITH NO
SIGNIFICANT WEATHER AND/OR OBSTRUCTIONS TO VISIBILITY. N/A MEANS
CURRENT SKY AND/OR WEATHER CONDITIONS ARE NOT AVAILABLE.

MNZ060>063-068>070-141200-
   Twin Cities Metro

CITY           SKY/WX    TMP DP  RH WIND       PRES   REMARKS
TWIN CITIES    CLOUDY    19  15  84 NW6       30.01S WCI  11
ST PAUL        CLOUDY    20  15  81 NW6       30.02S WCI  12
CRYSTAL        CLOUDY    17  10  74 N6        29.99S WCI   9
BLAINE         FLURRIES  18  14  86 NW6       30.00S WCI   9
LAKEVILLE        N/A     10   9  92 SW3       30.00S
EDEN PRAIRIE   PTCLDY    17  13  84 CALM      29.99F
SOUTH ST PAUL  CLOUDY    20  16  84 CALM      30.01R
LAKE ELMO      CLOUDY    21  18  86 W3        30.01S
$$
MNZ001>005-007-008-013>017-022>024-027-028-141200-
   Northwest Minnesota

CITY           SKY/WX    TMP DP  RH WIND       PRES   REMARKS
BEMIDJI        FLURRIES  12   9  87 W6        29.94F WCI   3
HALLOCK        CLOUDY    18  16  93 W6        29.98S WCI   9
ROSEAU         LGT SNOW  14  10  85 SW3       29.95S
WARROAD        LGT SNOW  12   9  85 SW3       29.94S
CROOKSTON      FLURRIES  16  14  93 W5        29.99S WCI   9
FOSSTON        CLOUDY    12  10  92 SW6       29.96S WCI   3
DETROIT LAKES  FLURRIES  14  14 100 NW6       29.97S WCI   5
MOORHEAD       CLOUDY    18  12  79 CALM      30.00F
PARK RAPIDS    FLURRIES  12   8  84 NW8       29.94S WCI   0
MAHNOMEN       CLOUDY    13  11  92 CALM      29.96F
$$
MNZ006-009>011-018-025>026-141200-
   North Central Minnesota

CITY           SKY/WX    TMP DP  RH WIND       PRES   REMARKS
BAUDETTE       LGT SNOW  10   7  87 CALM      29.93S FOG
FLAG ISLAND    LGT SNOW  10   7  85 W5        29.93S WCI   2
INTL FALLS     LGT SNOW  12   8  84 W3        29.93S FOG
WASKISH        FLURRIES  12  10  92 SW6       29.94S WCI   3
BIG FORK       FLURRIES  12   9  85 W3        29.93F
LONGVILLE      FLURRIES  12  10  92 W3        29.95S
GRAND RAPIDS   FLURRIES  14  11  87 W7        29.95F WCI   4
CRANE LAKE     FLURRIES  12  10  92 CALM      29.95R
ORR            CLOUDY    12  10  92 W6        29.89S WCI   3
COOK           CLOUDY    14  10  85 W7        29.91F WCI   4
WALKER         FLURRIES  12   9  87 W3        29.94F
$$
MNZ012-019>021-037-141200-
   Northeast Minnesota

CITY           SKY/WX    TMP DP  RH WIND       PRES   REMARKS
DULUTH         CLOUDY    13  10  88 NW5       29.91F WCI   5
ELY            CLOUDY    12  10  92 CALM      29.90S
HIBBING        CLOUDY    14  11  87 W5        29.92S WCI   6
EVELETH        LGT SNOW  14   9  83 CALM      29.93S
DULUTH HARBOR  CLOUDY    12   9  85 SW7       29.99S WCI   2
TWO HARBORS    CLOUDY    14   9  79 CALM      29.92S
SILVER BAY     CLOUDY    -9 -15  77 CALM      29.91S
GRAND MARAIS     N/A     10   5  80 VRB6      29.95F WCI   0
G MARAIS ARPRT CLOUDY    -2  -8  78 CALM      29.86R
$$
MNZ029>031-032-039>041-046>048-054>057-064-141200-
   West Central Minnesota

CITY           SKY/WX    TMP DP  RH WIND       PRES   REMARKS
FERGUS FALLS   CLOUDY    16  12  86 N8        30.02R WCI   5
WHEATON        CLOUDY    19  16  86 NW3       30.03R
MORRIS         CLOUDY    19  16  86 NW13      29.98F WCI   7
ALEXANDRIA     CLOUDY    17  14  88 W7        29.96S WCI   8
ELBOW LAKE     CLOUDY    16  14  93 W9        29.99S WCI   4
WADENA         FLURRIES  12  12 100 NW6       29.95F WCI   3
GLENWOOD       CLOUDY    18  16  93 W9        29.97S WCI   6
APPLETON       CLOUDY    21  18  86 N7        30.01S WCI  13
BENSON         CLOUDY    19  16  86 N7        30.01S WCI  10
ORTONVILLE     CLOUDY    21  16  79 CALM      30.00S
MADISON        CLOUDY    25  19  80 CALM      30.01S
WILLMAR        CLOUDY    21  18  86 W7        30.00S WCI  13
$$
MNZ033>034-036-042>043-049>051-058-059-141200-
   Central Minnesota

CITY           SKY/WX    TMP DP  RH WIND       PRES   REMARKS
ST CLOUD       CLOUDY    15  12  88 CALM      29.98F
SAUK CENTRE    CLOUDY    18  14  86 W5        29.96F WCI  11
PAYNESVILLE    CLOUDY    18  16  93 CALM      29.98F
AITKIN         CLOUDY    12  10  92 W3        29.95S
PINE RIVER     CLOUDY    12  10  92 W5        29.99S WCI   4
BRAINERD       CLOUDY    15  11  83 NW7       29.97S WCI   5
STAPLES        CLOUDY    14  10  85 W8        29.95S WCI   3
LONG PRAIRIE   CLOUDY    18  14  86 SW3       29.96F
LITTLE FALLS   CLOUDY    14   9  79 CALM      29.97F
LITCHFIELD     CLOUDY    16  14  93 CALM      30.00R
BUFFALO        CLEAR     13  10  84 CALM      30.01S
MAPLE LAKE     PTCLDY    13  11  93 CALM      30.00S
HUTCHINSON     CLOUDY    10   8  92 CALM      30.00R
$$
MNZ037-044-045-052-053-141200-
   East Central Minnesota

CITY           SKY/WX    TMP DP  RH WIND       PRES   REMARKS
PRINCETON      FLURRIES  16  12  86 CALM      29.98F
MORA           CLOUDY    12  10  92 CALM      30.00R
CAMBRIDGE      FLURRIES  16  10  79 CALM      29.99F
RUSH CITY      FLURRIES  15  12  90 CALM      29.99F
MOOSE LAKE     CLOUDY    18  14  86 CALM      29.95S
HINCKLEY       CLOUDY    18  16  93 W3        29.98R
CLOQUET        CLOUDY    12  10  92 W3        29.93S
MCGREGOR       CLOUDY    18  14  86 W5        29.96S WCI  11
$$
MNZ071>073-080-081-089-090-097-098-141200-
   Southwest Minnesota

CITY           SKY/WX    TMP DP  RH WIND       PRES   REMARKS
MONTEVIDEO     CLOUDY    19  16  86 N7        30.01S WCI  10
GRANITE FALLS  CLOUDY    22  18  83 NW8       30.02R WCI  13
CANBY          CLOUDY    23  20  87 CALM      30.01S
MARSHALL       CLOUDY    21  17  84 W5        30.01R WCI  15
REDWOOD FALLS  CLOUDY    21  14  74 VRB3      30.01R
OLIVIA         CLOUDY    21  16  79 CALM      29.99S
PIPESTONE      CLOUDY    25  21  86 CALM      29.97R
WINDOM           N/A     21   9  58 W13       29.98S WCI   9
WORTHINGTON    CLOUDY    21  18  88 N6        29.99R WCI  13
JACKSON        CLOUDY    23  18  80 MISG      29.99R
SLAYTON        CLOUDY    21  19  93 N5        29.98S WCI  14
$$
MNZ065>067-074>077-082>085-091>093-141200-
   South Central Minnesota

CITY           SKY/WX    TMP DP  RH WIND       PRES   REMARKS
MANKATO        CLEAR     11   8  88 CALM      30.01S
NEW ULM        CLOUDY    16  10  79 CALM      30.00F
ST JAMES       CLOUDY    18  14  86 CALM      30.02R
FAIRMONT       CLOUDY    18  14  84 NW5       30.01R WCI  11
GLENCOE        CLEAR     12  11  92 CALM      30.00R
FARIBAULT      CLOUDY     9   7  92 CALM      30.00S
OWATONNA       CLOUDY     7   5  92 CALM      30.00R FOG
WASECA         CLOUDY    10   9  92 N3        30.02R
ALBERT LEA     PTCLDY    12  10  92 CALM      29.98S
$$
MNZ078>079-086>088-094>096-141200-
   Southeast Minnesota

CITY           SKY/WX    TMP DP  RH WIND       PRES   REMARKS
ROCHESTER      CLOUDY     9   7  92 NW7       29.98R WCI  -2
RED WING       FLURRIES  12   9  85 CALM      30.01S
STANTON        CLOUDY     8   5  86 S3        30.00S
DODGE CENTER   CLOUDY    10   9  92 N5        29.98R WCI   2
WINONA         CLOUDY    10   9  92 NW3       30.04R
AUSTIN         CLOUDY    10   9  92 CALM      29.98S
PRESTON        CLOUDY    11   9  90 NW5       29.98S WCI   3
$$
ABBREVIATIONS USED IN REMARKS
   TC - TEMPERATURES IN CELSIUS
  WCI - WIND CHILL INDEX
   HX - HEAT INDEX
  VSB - VISIBILITY
$$




USA.gov is the U.S. government's official web portal to all federal, state and local government web resources and services.